Probability
0 0 0 0 0 0 0 0 0 0 0 0 0 0 0 0 0 0 0 0 0 0 0 0 0 0 0 0 0 0 0 0 0 0 0 0 0 0 0 0 0 0 0 0
0 0 0 0 0 0 0 0 0 0 0 0 0 0 0 0 0 0 0 0 0 0 0 0 0 0 0 0 0 0 0 0 0 0 0 0 0 0 0 0 0 0 0 0
0 0 0 0 0 0 0 0 0 0 0 0 0 0 0 0 0 0 0 0 0 0 0 0 0 0 0 0 0 0 0 0 0 0 0 0 0 0 0 0 0 0 0 0
0 0 0 0 0 0 0 0 0 0 0 0 0 0 0 0 0 0 0 0 0 0 0 0 0 0 0 0 0 0 0 0 0 0 0 0 0 0 0 0 0 0 0 0
0 0 0 0 0 0 0 0 0 0 0 0 0 0 0 0 0 0 0 0 0 0 0 0 0 0 0 0 0 0 0 0 0 0 0 0 0 0 0 0 0 0 0 0
0 0 0 0 0 0 0 0 0 0 0 0 0 0 0 0 0 0 0 0 0 0 0 0 0 0 0 0 0 0 0 0 0 0 0 0 0 0 0 0 0 0 0 0
0 0 0 0 0 0 0 0 0 0 0 0 0 0 0 0 0 0 0 0 0 0 0 0 0 0 0 0 0 0 0 0 0 0 0 0 0 0 0 0 0 0 0 0
0 0 0 0 0 0 0 0 0 0 0 0 0 0 0 0 0 0 0 0 0 0 0 0 0 0 0 0 0 0 0 0 0 0 0 0 0 0 0 0 0 0 0 0
0 0 0 0 0 0 0 0 0 0 0 0 0 0 0 0 0 0 0 0 0 0 0 0 0 0 0 0 0 0 0 0 0 0 0 0 0 0 0 0 0 0 0 0
0 0 0 0 0 0 0 0 0 0 0 0 0 0 0 0 0 0 0 0 0 0 0 0 0 0 0 0 0 0 0 0 0 0 0 0 0 0 0 0 0 0 0 0
0 0 0 0 0 0 0 0 0 0 0 0 0 0 0 0 0 0 0 0 0 0 0 0 0 0 0 0 0 0 0 0 0 0 0 0 0 0 0 0 0 0 0 0
0 0 0 0 0 0 0 0 0 0 0 0 0 0 0 0 0 0 0 0 0 0 0 0 0 0 0 0 0 0 0 0 0 0 0 0 0 0 0 0 0 0 0 0
0 0 0 0 0 0 0 0 0 0 0 0 0 0 0 0 0 0 0 0 0 0 0 0 0 0 0 0 0 0 0 0 0 0 0 0 0 0 0 0 0 0 0 0
0 0 0 0 0 0 0 0 0 0 0 0 0 0 0 0 0 0 0 0 0 0 0 0 0 0 0 0 0 0 0 0 0 0 0 0 0 0 0 0 0 0 0 0
0 0 0 0 0 0 0 0 0 0 0 0 0 0 0 0 0 0 0 0 0 0 0 0 0 0 0 0 0 0 0 0 0 0 0 0 0 0 0 0 0 0 0 0
0 0 0 0 0 0 0 0 0 0 0 0 0 0 0 0 0 0 0 0 0 0 0 0 0 0 0 0 0 0 0 0 0 0 0 0 0 0 0 0 0 0 0 0
0 0 0 0 0 0 0 0 0 0 0 0 0 0 0 0 0 0 0 0 0 0 0 0 0 0 0 0 0 0 0 0 0 0 0 0 0 0 0 0 0 0 0 0
0 0 0 0 0 0 0 0 0 0 0 0 0 0 0 0 0 0 0 0 0 0 0 0 0 0 0 0 0 0 0 0 0 0 0 0 0 0 0 0 0 0 0 0
0 0 0 0 0 0 0 0 0 0 0 0 0 0 0 0 0 0 0 0 0 0 0 0 0 0 0 0 0 0 0 0 0 0 0 0 0 0 0 0 0 0 0 0
0 0 0 0 0 0 0 0 0 0 0 0 0 0 0 0 0 0 0 0 0 0 0 0 0 0 0 0 0 0 0 0 0 0 0 0 0 0 0 0 0 0 0 0
0 0 0 0 0 0 0 0 0 0 0 0 0 0 0 0 0 0 0 0 0 0 0 0 0 0 0 0 0 0 0 0 0 0 0 0 0 0 0 0 0 0 0 0
0 0 0 0 0 0 0 0 0 0 0 0 0 0 0 0 0 0 0 0 0 0 0 0 0 0 0 0 0 0 0 0 0 0 0 0 0 0 0 0 0 0 0 0
0 0 0 0 0 0 0 0 0 0 0 0 0 0 0 0 0 0 0 0 0 0 0 0 0 0 0 0 0 0 0 0 0 0 0 0 0 0 0 0 0 0 0 0
0 0 0 0 0 0 0 0 0 0 0 0 0 0 0 0 0 0 0 0 0 0 0 0 0 0 0 0 0 0 0 0 0 0 0 0 0 0 0 0 0 0 0 0
0 0 0 0 0 0 0 0 0 0 0 0 0 0 0 0 0 0 0 0 0 0 0 0 0 0 0 0 0 0 0 0 0 0 0 0 0 0 0 0 0 0 0 0
0 0 0 0 0 0 0 0 0 0 0 0 0 0 0 0 0 0 0 0 0 0 0 0 0 0 0 0 0 0 0 0 0 0 0 0 0 0 0 0 0 0 0 0
0 0 0 0 0 0 0 0 0 0 0 0 0 0 0 0 0 0 0 0 0 0 0 0 0 0 0 0 0 0 0 0 0 0 0 0 0 0 0 0 0 0 0 0
Wind_Speed
5 5 3 5 5 5 7 8 7 8 8 11 6 6 6 5 5 5 5 5 4 4 4 4 5 5 5 5 4 3 2 1 1 1 1 1 1 0 1 1 0 1 0 0
4 3 4 6 7 7 8 7 8 8 11 7 4 3 4 5 5 5 5 5 5 5 5 5 4 5 5 5 4 3 2 1 1 1 1 0 0 1 1 0 0 1 0 0
4 5 4 7 8 8 6 6 7 9 9 4 4 5 6 6 5 5 5 5 6 5 5 5 5 4 4 4 4 3 2 1 1 1 1 1 1 1 1 0 0 0 0 0
1 3 5 7 2 5 6 7 8 7 6 4 6 6 6 5 4 5 5 5 5 5 5 5 5 4 4 3 3 2 2 2 1 1 0 0 1 0 0 0 0 0 0 0
1 3 10 8 3 4 5 7 6 7 6 4 3 4 5 3 3 4 5 4 4 4 4 4 5 4 3 3 3 2 2 2 2 1 0 0 0 0 0 0 0 0 0 0
2 3 8 6 2 1 2 7 4 4 5 3 1 3 6 3 3 4 4 3 4 4 4 4 4 3 2 2 2 3 3 2 2 1 0 1 1 0 0 0 0 1 1 1
4 6 11 6 2 2 2 7 4 3 4 4 4 5 5 3 3 3 3 3 3 3 3 4 4 3 2 2 2 3 3 2 2 1 0 0 0 1 1 1 1 1 1 1
5 5 11 3 4 6 7 4 3 3 3 3 4 4 3 3 3 2 3 3 3 3 4 4 3 2 2 3 3 2 2 2 2 1 1 0 1 1 1 1 1 1 1 1
10 10 5 4 6 5 3 3 4 3 3 2 3 4 3 3 3 2 2 2 2 2 3 4 4 2 2 3 3 2 2 2 2 2 1 1 1 1 1 1 1 1 0 1
6 10 7 7 6 5 4 5 5 4 3 2 3 4 3 3 3 3 2 2 2 2 3 4 4 3 2 2 2 2 2 2 2 2 2 2 1 1 1 1 0 0 0 0
8 8 6 7 7 6 5 4 4 3 3 3 3 3 3 3 3 3 3 2 1 1 2 3 4 4 3 2 2 1 1 1 1 1 1 1 1 1 1 0 1 1 0 0
9 7 6 6 5 5 4 4 4 3 3 2 3 3 3 3 3 2 2 2 2 2 2 3 3 3 3 2 1 1 1 1 1 1 1 1 1 2 3 2 3 3 3 2
6 4 5 5 4 3 4 4 3 3 3 3 2 2 2 3 2 2 2 2 2 3 3 3 3 3 3 2 1 1 1 1 1 1 0 0 0 0 1 2 3 4 4 4
5 3 4 5 4 3 3 3 2 2 2 2 2 2 2 2 2 2 3 3 2 2 2 2 2 3 3 1 1 1 1 1 1 0 0 0 0 0 0 0 1 2 3 4
7 6 6 4 2 2 1 1 1 2 2 1 1 1 1 2 2 3 3 2 2 2 2 2 2 3 2 1 1 1 0 0 0 0 0 0 0 0 0 0 0 1 1 2
5 4 4 4 4 3 2 2 3 3 2 2 2 2 2 2 2 2 2 1 1 2 3 2 3 3 1 1 1 0 1 1 1 0 0 0 0 0 0 0 0 0 1 1
5 5 5 5 6 5 5 5 5 4 3 3 3 2 1 1 1 2 2 2 2 2 2 2 2 2 1 1 0 0 0 1 1 1 0 0 0 1 1 0 1 1 1 2
8 8 7 7 6 5 5 4 4 3 3 3 2 1 1 2 2 3 2 2 2 2 2 2 1 1 1 1 0 0 0 1 0 0 0 1 1 1 1 1 1 1 1 2
7 7 6 6 5 5 4 4 4 3 2 2 2 2 3 3 2 2 1 1 1 3 3 2 2 1 1 1 1 0 0 1 1 1 1 1 1 1 1 1 1 1 1 1
4 4 4 3 3 4 4 3 3 2 2 2 2 2 2 2 1 1 1 2 3 3 2 2 1 1 1 1 1 1 1 1 1 1 1 1 1 1 1 1 1 2 2 2
4 4 4 3 3 3 3 4 3 3 2 3 3 3 3 2 1 1 1 3 3 2 2 2 1 1 1 1 2 1 1 1 1 1 1 1 1 1 1 2 2 2 2 2
3 3 3 3 3 2 2 2 3 3 2 2 2 2 2 2 2 2 3 3 3 3 2 1 1 2 2 2 1 1 1 1 1 1 1 1 1 2 2 2 2 2 2 2
3 3 3 3 3 2 1 2 3 3 3 3 3 3 3 3 2 2 3 2 2 3 2 2 3 4 4 1 1 1 1 2 1 1 2 2 2 2 2 2 2 2 2 2
3 3 3 2 3 2 2 2 2 2 2 2 3 3 3 2 2 2 2 2 3 3 1 3 4 4 2 0 1 1 1 2 2 2 2 2 2 2 2 2 2 2 2 3
3 3 3 4 3 3 3 2 1 1 1 1 1 2 2 2 2 2 1 2 3 2 2 3 4 3 1 0 1 1 2 2 2 2 2 2 2 2 2 2 2 3 3 3
3 3 3 3 3 3 2 2 2 2 2 1 1 1 1 1 1 1 1 1 2 2 1 1 2 2 1 1 1 2 2 2 3 2 2 2 2 3 3 3 3 3 3 3
2 2 2 1 1 2 3 3 3 3 2 2 2 1 1 1 1 1 1 1 1 1 1 1 1 1 1 1 1 2 2 2 2 2 2 2 2 3 3 3 3 3 2 3
Wind_Direction
256 271 249 242 244 218 211 215 222 249 257 271 278 281 291 300 308 316 319 321 321 322 324 329 331 327 329 327 328 339 350 336 303 330 46 51 39 108 125 138 161 163 133 333
295 294 265 267 259 238 235 237 243 266 273 272 279 290 297 298 299 301 305 309 315 321 323 324 322 320 324 321 322 335 330 298 321 13 43 65 52 57 74 90 90 87 148 265
283 311 329 276 241 214 219 218 208 236 255 286 293 282 278 280 282 280 294 306 311 311 309 310 309 308 310 312 319 329 327 322 336 359 18 3 38 59 61 78 103 91 301 229
302 2 258 249 222 201 220 240 226 245 261 259 264 280 277 262 258 276 292 297 300 304 310 312 312 313 317 322 326 331 337 337 331 337 321 32 63 66 21 91 130 209 269 265
152 262 278 288 255 190 207 265 233 238 262 282 307 319 290 257 254 265 273 283 289 295 302 309 312 311 322 325 332 332 334 329 317 295 283 98 200 271 280 71 15 307 299 279
159 223 255 262 262 209 116 284 257 217 242 254 53 310 286 296 291 290 298 304 308 314 319 317 316 321 332 325 334 326 319 314 314 292 219 230 245 287 33 74 279 342 3 7
198 236 264 258 223 114 174 262 290 228 230 210 213 238 274 299 301 298 304 312 321 325 323 315 319 333 337 330 313 313 324 332 338 338 301 245 91 61 47 38 36 21 358 6
175 220 256 208 139 190 230 277 281 260 249 237 255 280 293 296 295 308 321 326 332 340 333 330 335 346 337 317 315 333 351 355 349 348 340 42 91 80 76 77 58 18 12 20
199 221 253 196 212 235 240 259 264 260 268 247 267 277 288 289 288 293 298 308 323 333 331 334 340 348 324 316 337 358 20 3 352 354 360 41 96 101 86 91 87 348 12 24
253 261 257 253 253 255 248 252 263 260 257 233 252 270 282 282 285 291 296 302 324 340 331 325 332 338 322 325 347 24 26 11 14 28 27 38 52 68 81 92 111 298 352 23
253 269 287 267 240 243 255 262 271 273 254 235 233 260 263 270 275 279 293 302 292 284 294 305 323 328 329 339 8 25 22 27 22 22 38 50 40 29 18 354 244 272 273 234
229 230 216 255 249 223 227 247 251 254 271 263 229 246 259 268 271 274 281 291 298 299 299 306 317 318 323 340 9 31 14 14 11 9 23 49 58 28 17 9 2 356 351 353
232 238 232 263 262 226 222 237 240 235 238 258 255 237 240 262 264 270 277 273 276 280 288 298 309 312 320 334 349 3 330 330 347 360 19 25 29 46 9 12 16 14 7 360
233 224 250 246 246 234 226 235 236 247 244 234 235 236 240 263 271 272 275 278 282 286 291 295 302 303 315 324 320 325 334 319 335 319 327 302 280 314 333 14 11 6 8 8
227 220 228 241 239 232 214 200 241 265 266 268 226 215 232 253 264 275 291 306 312 306 303 307 304 304 319 317 305 297 293 310 327 329 332 308 325 26 28 25 1 348 3 1
219 224 225 225 230 229 217 215 225 242 244 253 254 251 251 254 266 280 298 313 298 293 295 294 291 300 314 313 319 320 298 296 334 343 345 338 349 345 298 265 278 321 322 326
185 215 217 223 228 229 220 219 219 226 231 240 246 250 260 284 298 298 306 311 289 280 281 275 285 315 324 308 274 275 296 287 302 352 329 282 258 231 226 217 232 267 284 298
212 216 212 211 214 220 225 222 219 216 221 231 229 213 224 234 256 279 300 319 327 319 305 295 304 330 329 319 285 264 269 281 270 257 272 272 268 237 222 227 235 250 276 299
215 216 217 216 212 208 212 214 215 214 215 197 199 219 235 241 248 269 293 307 305 302 304 303 303 341 307 278 291 235 234 256 285 287 270 273 294 275 255 245 245 250 264 274
215 212 210 210 200 196 203 201 191 198 204 188 195 216 241 253 250 260 272 269 257 259 275 292 302 290 267 256 249 216 216 226 238 248 248 248 250 258 261 259 252 253 255 257
205 201 196 195 202 202 193 181 177 196 205 190 198 217 233 250 245 234 250 282 288 283 279 285 293 263 250 255 244 206 220 230 233 239 244 251 255 259 263 265 262 260 260 261
199 195 198 189 184 202 196 175 177 185 192 203 212 212 218 240 248 260 252 247 268 293 305 283 276 266 267 265 222 208 229 236 238 243 248 254 257 260 262 265 263 264 263 262
197 191 188 186 182 182 177 185 186 185 194 204 208 211 220 231 220 227 272 269 265 283 297 276 281 282 281 260 206 218 229 234 237 241 248 253 255 257 260 264 265 263 263 265
186 179 175 159 143 152 198 224 204 197 201 215 217 210 204 222 257 246 245 268 282 290 285 281 289 290 291 272 226 231 233 240 245 249 251 253 251 253 256 259 262 262 261 264
174 168 163 161 173 194 201 191 170 185 191 219 239 232 218 207 219 245 248 252 266 287 295 286 291 301 313 266 240 244 248 249 251 249 243 250 252 253 256 260 259 259 259 261
179 183 187 190 190 187 180 174 184 198 192 221 257 246 231 217 216 231 241 251 260 283 297 299 300 303 305 272 258 257 257 270 277 271 260 259 259 259 261 261 261 260 259 259
169 170 167 179 196 188 182 181 190 203 199 200 230 236 222 210 209 226 239 256 270 283 289 295 299 295 289 281 273 268 266 264 262 260 258 256 255 256 259 260 261 261 262 262